EW3244 Weather Reports


Display with metric or nautical units.
time (UTC)temp
F
wind
direction
speed
MPH
gust
MPH
rain 1hr
in
rain 24hr
in
rain mn
in
humidity
%
barometer
mb
20260507181550 54 255 0.0 3.0 0.00 0.00 0.00 36 1016.4
20260507180048 56 305 2.0 6.0 0.00 0.00 0.00 33 1016.1
20260507174547 57 225 0.0 3.0 0.00 0.00 0.00 35 1015.8
20260507173045 58 77 2.0 5.0 0.00 0.00 0.00 35 1015.6
20260507171549 58 71 4.0 6.0 0.00 0.00 0.00 34 1015.4
20260507170042 60 82 0.0 3.0 0.00 0.00 0.00 30 1015.3
20260507164555 60 90 1.0 3.0 0.00 0.00 0.00 32 1015.1
20260507163039 59 92 2.0 6.0 0.00 0.00 0.00 32 1015.1
20260507161539 60 147 1.0 4.0 0.00 0.00 0.00 31 1015.1
20260507160036 60 105 0.0 7.0 0.00 0.00 0.00 32 1014.9
20260507154536 60 114 2.0 6.0 0.00 0.00 0.00 33 1014.9
20260507153031 60 101 1.0 9.0 0.00 0.00 0.00 34 1014.8
20260507151529 60 86 4.0 8.0 0.00 0.00 0.00 32 1014.7
20260507150027 59 104 1.0 9.0 0.00 0.00 0.00 33 1014.7
20260507144524 60 96 5.0 10.0 0.00 0.00 0.00 34 1014.6
20260507143038 59 72 1.0 10.0 0.00 0.00 0.00 33 1014.5
20260507141520 60 124 1.0 4.0 0.00 0.00 0.00 33 1014.5
20260507140020 59 78 3.0 9.0 0.00 0.00 0.00 34 1014.5
20260507134517 59 347 2.0 10.0 0.00 0.00 0.00 32 1014.4
20260507133014 60 136 1.0 7.0 0.00 0.00 0.00 33 1014.3
20260507131512 59 99 3.0 10.0 0.00 0.00 0.00 35 1014.3
20260507130026 59 66 5.0 12.0 0.00 0.00 0.00 36 1014.2
20260507124507 59 71 1.0 9.0 0.00 0.00 0.00 35 1014.2
20260507123005 58 38 5.0 10.0 0.00 0.00 0.00 35 1014.1
20260507121503 59 102 1.0 8.0 0.00 0.00 0.00 36 1014.1
20260507120002 58 52 7.0 12.0 0.00 0.00 0.00 33 1014.1
20260507114601 59 53 3.0 6.0 0.00 0.00 0.00 33 1014.0
20260507113058 59 84 2.0 7.0 0.00 0.00 0.00 33 1014.0
20260507111556 58 73 3.0 8.0 0.00 0.00 0.00 37 1014.1
20260507110055 58 103 2.0 7.0 0.00 0.00 0.00 36 1014.0
20260507104558 57 47 2.0 7.0 0.00 0.00 0.00 36 1013.9
20260507103051 58 60 1.0 5.0 0.00 0.00 0.00 38 1013.8
20260507101548 58 192 1.0 7.0 0.00 0.00 0.00 38 1013.8
20260507100054 56 71 2.0 5.0 0.00 0.00 0.00 42 1013.7
20260507094544 56 62 4.0 8.0 0.00 0.00 0.00 39 1013.7
20260507093043 55 137 1.0 5.0 0.00 0.00 0.00 43 1013.7
20260507091541 55 137 1.0 6.0 0.00 0.00 0.00 43 1013.7
20260507090043 55 80 2.0 5.0 0.00 0.00 0.00 45 1013.7
20260507084539 54 51 3.0 5.0 0.00 0.00 0.00 46 1013.6
20260507083032 53 64 0.0 4.0 0.00 0.00 0.00 49 1013.5
20260507081532 52 44 2.0 5.0 0.00 0.00 0.00 49 1013.4
20260507080030 52 66 2.0 4.0 0.00 0.00 0.00 48 1013.3
20260507074529 53 315 1.0 4.0 0.00 0.00 0.00 49 1013.3
20260507073027 50 72 1.0 6.0 0.00 0.00 0.00 50 1013.3
20260507071531 51 70 0.0 3.0 0.00 0.00 0.00 51 1013.2
20260507070020 49 19 1.0 5.0 0.00 0.00 0.00 54 1013.2
20260507064533 49 63 3.0 6.0 0.00 0.00 0.00 55 1013.1
20260507063019 48 43 1.0 6.0 0.00 0.00 0.00 57 1013.0
20260507061515 47 40 2.0 5.0 0.00 0.00 0.00 59 1012.9
20260507060012 46 350 2.0 5.0 0.00 0.00 0.00 59 1012.8
20260507054510 46 53 3.0 6.0 0.00 0.00 0.00 60 1012.7
20260507053008 45 37 3.0 7.0 0.00 0.00 0.00 60 1012.7
20260507051505 45 34 3.0 7.0 0.00 0.00 0.00 59 1012.6
20260507050010 44 344 1.0 5.0 0.00 0.00 0.00 60 1012.7
20260507044600 43 13 1.0 3.0 0.00 0.00 0.00 60 1012.7
20260507043057 42 33 0.0 4.0 0.00 0.00 0.00 61 1012.6
20260507041552 40 296 2.0 5.0 0.00 0.00 0.00 64 1012.5
20260507040048 39 318 1.0 4.0 0.00 0.00 0.00 66 1012.4
20260507034546 38 324 2.0 4.0 0.00 0.00 0.00 70 1012.3
20260507033045 37 308 0.0 3.0 0.00 0.00 0.00 71 1012.2
20260507031545 37 321 1.0 3.0 0.00 0.00 0.00 71 1012.2
20260507030044 37 288 1.0 5.0 0.00 0.00 0.00 73 1012.1
20260507024543 37 314 0.0 3.0 0.00 0.00 0.00 74 1012.3
20260507023043 36 296 0.0 2.0 0.00 0.00 0.00 75 1012.4
20260507021543 36 313 0.0 1.0 0.00 0.00 0.00 75 1012.4
20260507020120 36 313 0.0 1.0 0.00 0.00 0.00 74 1012.4
20260507014544 36 317 0.0 2.0 0.00 0.00 0.00 71 1012.4
20260507013036 37 310 0.0 4.0 0.00 0.00 0.00 70 1012.3
20260507011539 38 276 1.0 5.0 0.00 0.00 0.00 69 1012.2
20260507010049 38 324 1.0 4.0 0.00 0.00 0.00 69 1012.1
20260507004535 38 286 1.0 5.0 0.00 0.00 0.00 69 1012.0
20260507003030 38 303 2.0 4.0 0.00 0.00 0.00 71 1012.0
20260507001530 37 270 0.0 5.0 0.00 0.00 0.00 72 1012.1
20260507000029 36 260 0.0 2.0 0.00 0.00 0.00 72 1012.1
20260506234530 36 301 0.0 1.0 0.00 0.00 0.00 71 1012.0
20260506233025 36 301 0.0 1.0 0.00 0.00 0.00 69 1012.0
20260506231522 37 301 0.0 1.0 0.00 0.00 0.00 67 1012.1
20260506230025 38 337 0.0 3.0 0.00 0.00 0.00 65 1012.1
20260506224518 38 309 0.0 3.0 0.00 0.00 0.00 65 1011.9
20260506223015 38 299 1.0 4.0 0.00 0.00 0.00 63 1012.0
20260506221512 38 310 0.0 3.0 0.00 0.00 0.00 63 1012.0
20260506220015 39 298 0.0 2.0 0.00 0.00 0.00 61 1011.9
20260506214509 40 296 0.0 3.0 0.00 0.00 0.00 59 1011.9
20260506213008 41 304 1.0 4.0 0.00 0.00 0.00 57 1011.8
20260506211508 41 287 1.0 5.0 0.00 0.00 0.00 57 1011.7
20260506210008 42 293 0.0 4.0 0.00 0.00 0.00 55 1011.8
20260506204507 43 279 2.0 6.0 0.00 0.00 0.00 53 1011.7
20260506203006 43 304 2.0 8.0 0.00 0.00 0.00 53 1011.6
20260506201520 44 284 2.0 5.0 0.00 0.00 0.00 52 1011.7
20260506200005 44 317 2.0 6.0 0.00 0.00 0.00 51 1011.6
20260506194507 44 250 2.0 7.0 0.00 0.00 0.00 51 1011.6
20260506193004 44 270 2.0 8.0 0.00 0.00 0.00 50 1011.5
20260506191503 45 311 0.0 7.0 0.00 0.00 0.00 49 1011.4
20260506190004 46 259 2.0 10.0 0.00 0.00 0.00 47 1011.3
20260506184504 47 270 3.0 7.0 0.00 0.00 0.00 45 1011.3
20260506183001 48 296 1.0 7.0 0.00 0.00 0.00 44 1011.1